www.pogodaiklimat.ru

Погода и климат >> Архив погоды >> Иран >> Эскандар Кола


ПОГОДА в Эскандар Кола

  • Прогноз погоды в Эскандар Кола
  • Монитор погоды в Эскандар Кола

АРХИВ ПОГОДЫ в Эскандар Кола

Время (UTC), дата Ветер
(напр.,м/с)
 
Видим.   Явления Облачность Т
(С)
Тd
(С)
f
(%)
Тe
(С)
Тes
(С)
Комфортность P
(гПа)
Po
(гПа)
Тmin
(С)
Tmax
(С)
R
(мм)
R24
(мм)
S
(см)
15 17.04 З 6 10 км 10/9 500 м
[Cb calv As op]
+16.0 +14.6 91 +15 +15 1003.6 1001.8 +23.4
18 17.04 З 4 10 км 9/6 660 м
[Frnb Ac As]
+15.0 +12.8 87 +14 +14 1007.0 1005.3
21 17.04 штиль 0 10 км 8/3 1000 м
[Sc Cs]
+13.2 +12.5 96 +13 +13 1008.9 1007.2
00 18.04 ЮЗ 2 10 км 10/8 600 м
[Frnb As op]
+14.6 +13.9 96 +14 +14 1010.0 1008.3
03 18.04 штиль 0 10 км 10/9 600 м
[Cb calv As op]
+14.8 +13.4 91 +14 +14 1011.7 1009.9 +12.8
06 18.04 штиль 0 13 км 9/3 900 м
[Sc Ac As]
+17.4 +12.8 74 +17 +22 1013.0 1011.3
09 18.04 СВ 4 10 км 9/5 800 м
[Cu Sc Ac As]
+19.0 +14.2 74 +20 +23 1012.9 1011.2
12 18.04 С 3 13 км 8/3 1000 м
[Sc Ac As]
+20.0 +14.5 71 +22 +25 комфорт 1013.1 1011.4
15 18.04 С 4 10 км 10/5 870 м
[Sc As op]
+16.6 +13.4 81 +16 +16 1015.0 1013.3 +21.0 666
18 18.04 С 3 10 км 10/5 800 м
[Sc As op]
+15.6 +14.2 91 +15 +15 1016.5 1014.8
21 18.04 СВ 3 6000 м дождь 10/8 660 м
[Cb calv As op]
+14.2 +13.8 97 +13 +13 1016.9 1015.1
00 19.04 СВ 4 9000 м слаб. дождь 10/8 750 м
[Cb calv As op]
+13.0 +13.0 100 +11 +11 1015.8 1014.0 2
03 19.04 СЗ 2 5000 м слаб. дождь 10/8 630 м
[Cb calv As op]
+13.0 +13.0 100 +12 +12 1015.7 1013.9 +13.0 666
06 19.04 В 3 5000 м дождь 10/8 660 м
[Cb calv As op]
+12.6 +12.2 97 +11 +11 1016.0 1014.2 11
09 19.04 С 3 7000 м дымка {дождь} 10/5 700 м
[Cb calv As op]
+14.0 +13.3 96 +13 +14 1015.8 1014.0 666
12 19.04 СВ 3 7000 м слаб. дождь 10/5 700 м
[Cb calv As op]
+13.6 +12.9 96 +12 +13 1016.3 1014.5 0.6
15 19.04 СВ 3 6000 м слаб. дождь 10/6 600 м
[St As op]
+11.4 +11.0 97 +9 +9 1015.6 1013.8 +14.0
18 19.04 штиль 0 6000 м слаб. дождь 10/6 660 м
[Cb calv As op]
+11.6 +11.2 97 +11 +11 1017.0 1015.2 4
21 19.04 СЗ 3 6000 м дождь 10/6 700 м
[Cb calv As op]
+11.4 +11.0 97 +9 +9 1017.0 1015.2
00 20.04 СЗ 2 6000 м дождь 10/8 700 м
[Cb calv As op]
+11.2 +10.8 97 +10 +10 1015.2 1013.4 5
03 20.04 ЮЗ 2 7000 м дымка {дождь} 10/5 800 м
[Sc As op]
+11.0 +10.6 97 +10 +10 1014.3 1012.5 +10.4 666
06 20.04 СЗ 3 6000 м дымка {дождь} 10/5 900 м
[Sc As op]
+12.4 +11.6 95 +11 +12 1014.0 1012.3 0.0
09 20.04 С 3 4000 м слаб. дождь 10/4 750 м
[Sc As op]
+12.4 +11.6 95 +11 +13 1014.5 1012.8
12 20.04 СВ 2 10 км {дождь} 9/4 900 м
[Sc As op]
+12.6 +10.7 88 +12 +13 1014.5 1012.8 2
15 20.04 штиль 0 8000 м слаб. дождь 10/6 750 м
[Cb calv As op]
+13.0 +11.9 93 +12 +12 1018.0 1016.2 +14.0
18 20.04 СЗ 3 6000 м слаб. дождь 10/6 660 м
[Cb calv As op]
+11.0 +10.6 97 +9 +9 1019.8 1018.0 2
21 20.04 штиль 0 6000 м слаб. дождь 10/6 700 м
[Cb calv As op]
+10.4 +9.6 95 +10 +10 1019.8 1018.0
00 21.04 штиль 0 6000 м слаб. дождь 10/6 700 м
[Cb calv As op]
+10.0 +9.2 95 +9 +9 1018.8 1017.0 4
03 21.04 СВ 3 6000 м сильн. дождь 10/6 800 м
[Sc As op]
+9.6 +9.2 97 +7 +7 1020.6 1018.8 +9.4
06 21.04 СВ 4 5000 м дождь 10/8 540 м
[Cb calv As op]
+10.6 +9.8 95 +8 +8 1021.0 1019.2 7
09 21.04 С 3 6000 м слаб. дождь 10/3 630 м
[Cb calv As op]
+11.4 +9.0 85 +10 +12 1020.8 1019.0
12 21.04 С 4 10 км в посл. час дождь 10/8 750 м
[Cb calv As op]
+11.4 +8.1 80 +9 +9 1020.6 1018.8 0.7
15 21.04 С 2 10 км 10/8 900 м
[Cb calv As op]
+10.8 +7.9 82 +9 +9 1020.6 1018.8 +11.4
18 21.04 ЮЗ 2 10 км 10/5 1050 м
[Sc As op]
+10.2 +8.6 90 +9 +9 1020.9 1019.1
21 21.04 ЮЗ 3 6000 м слаб. дождь 10/8 630 м
[Cb calv As op]
+9.6 +8.4 92 +7 +7 1021.1 1019.3
00 22.04 З 2 8000 м слаб. дождь 10/8 570 м
[Cb calv As op]
+9.0 +9.0 100 +7 +7 1020.4 1018.6 1
03 22.04 З 2 5000 м слаб. дождь 10/8 570 м
[Cb calv As op]
+9.2 +8.8 97 +7 +7 1018.6 1016.8 +9.0 666
06 22.04 штиль 0 10 км {дождь} 10/6 800 м
[Sc As op]
+10.8 +9.2 90 +10 +11 1017.4 1015.6 2
09 22.04 СВ 4 10 км 10/6 750 м
[Cu Sc As op]
+13.2 +10.1 81 +11 +12 1014.6 1012.8 666
12 22.04 СВ 3 10 км в посл. час дождь 10/5 900 м
[Sc As op]
+12.6 +9.4 81 +11 +12 1012.9 1011.2 0.0
15 22.04 СЗ 3 10 км слаб. дождь 10/5 900 м
[Sc As op]
+11.0 +9.0 87 +9 +9 1016.4 1014.6 +13.6
18 22.04 штиль 0 10 км в посл. час дождь 9/4 900 м
[Sc Ac As]
+10.2 +9.4 95 +9 +9 1017.9 1016.1 0.3
21 22.04 ЮЗ 4 8000 м слаб. дождь 10/5 800 м
[Sc As op]
+9.4 +9.0 97 +6 +6 1018.1 1016.3
00 23.04 З 2 10 км слаб. дождь 10/5 800 м
[Sc As op]
+9.0 +8.6 97 +7 +7 1018.1 1016.3 3
03 23.04 З 2 8000 м слаб. дождь 10/6 600 м
[St As op]
+9.0 +8.6 97 +7 +7 1019.5 1017.7 +8.6
06 23.04 ЮЗ 3 4000 м слаб. дождь 10/6 600 м
[St As op]
+10.2 +9.4 95 +8 +9 1021.8 1020.0 1
09 23.04 СЗ 9 4000 м слаб. дождь 10/6 600 м
[Cb calv As op]
+11.6 +10.8 95 +8 +8 1022.1 1020.3
12 23.04 ЮЗ 7 4000 м слаб. дождь 10/5 750 м
[Cb calv As op]
+10.0 +9.6 97 +6 +6 1025.1 1023.3 9
15 23.04 СЗ 2 2000 м слаб. дождь 10/4 750 м
[Cb calv As op]
+10.0 +9.6 97 +8 +8 1026.5 1024.7 +12.2 666
18 23.04 штиль 0 2000 м слаб. дождь 10/6 750 м
[Cb calv As op]
+8.6 +7.8 95 +8 +8 1028.5 1026.7 10
21 23.04 З 3 2000 м слаб. дождь 10/6 750 м
[Cb calv As op]
+8.2 +7.8 97 +5 +5 1029.1 1027.3
00 24.04 штиль 0 8000 м слаб. дождь 10/6 750 м
[Cb calv As op]
+8.0 +7.6 97 +7 +7 1029.3 1027.5 5
03 24.04 СВ 3 8000 м дымка {дождь} 8/6 750 м
[Cb calv As op]
+6.6 +5.7 94 +3 +4 1029.4 1027.6 +6.2
06 24.04 ЮВ 2 10 км {дождь} 4/3 750 м
[Cu med, cong Ac trans]
+12.6 +7.2 70 +12 +20 1029.9 1028.1 12
09 24.04 С 3 10 км 4/3 750 м
[Cu med, cong Ac trans]
+15.8 +8.2 61 +15 +25 1029.0 1027.1

 

Местоположение метеостанции Эскандар Кола (Иран): широта 36.45 долгота 52.82 высота над уровнем моря 14 м.

В архиве по умолчанию представлена погода в Эскандар Кола за последнюю неделю. Архивные данные за месяц целиком и за предыдущие месяцы, начиная с января 2011 года, Вы можете получить, выбрав интересующий диапазон дат из раскрывающегося списка и нажав кнопку "Ввод!".


*Определитесь, кто Вы:
робот инопланетянин человек

Внимание! Время в таблицах - всемирное. Для получения местного времени необходимо прибавить поправку, которая равна 3.5 ч.

Смотрите также архив погоды в соседних городах и на ближайших метеорологических станциях:

Погода в Бабольсере (Иран) (34 км)
Погода в Семнане (Иран) (112 км)
Погода в Ноушехре (Иран) (120 км)
Погода в Горгане (Иран) (137 км)
Погода в Эсенгулы (Балканский велаят, Туркменистан) (153 км)
Погода в Тегеране (Иран) (160 км)
Погода в Шахруде (Иран) (191 км)
Погода в Рамсаре (Иран) (198 км)
Погода в Гызылетреке (Балканский велаят, Туркменистан) (217 км)
Погода в Казвине (Иран) (254 км)

Пояснения к столбцам:

Ветер - указаны скорость ветра в м/с - средняя за 10 мин, порывы в срок и между сроками (в фигурных скобках) и направление, откуда дует ветер: С - северный, СВ - северо-восточный, В - восточный, ЮВ - юго-восточный, Ю - южный, ЮЗ - юго-западный, З - западный, СЗ - северо-западный.
Видимость - горизонтальная дальность видимости в метрах или километрах. При видимости от 1 до 10 км при отсутствии осадков обычно наблюдается дымка, при ухудшении видимости до 1 км и менее - туман. В сухую погоду видимость может ухудшаться дымом, пылью или мглою.
Явления - указаны атмосферные явления, наблюдавшиеся в срок или в последний час перед сроком; фигурными скобками обозначены явления, наблюдавшиеся между сроками (за 1-3 часа до срока); квадратными скобками обозначены град или гололедные отложения с указанием их диаметра в мм.
Облачность - указаны через наклонную черту общая и нижняя облачность в баллах и высота нижней границы облаков в метрах; квадратными скобками обозначены формы облаков: Ci - перистые, Cs - перисто-слоистые, Cc - перисто-кучевые, Ac - высококучевые, As - высокослоистые, Sc - слоисто-кучевые, Ns - слоисто-дождевые, Cu - кучевые, Cb - кучево-дождевые. Подробнее классификацию облаков см. в Атласе облаков (PDF).
T - Температура воздуха - температура, измеренная на высоте 2 м над землей.
Td - Температура точки росы - температура, при понижении до которой содержащийся в воздухе водяной пар достигнет насыщения.
f - Относительная влажность воздуха - влажноcть воздуха, измеренная на высоте 2 м над землей.
Te - Эффективная температура - температура, которую ощущает одетый по сезону человек в тени. Характеристика душности погоды. При расчете учитывается влияние влажности воздуха и скорости ветра на теплоощущения человека.
Tes - Эффективная температура на солнце - температура, которую ощущает человек, с поправкой на солнечный нагрев. Характеристика знойности погоды. Зависит от высоты солнца над горизонтом, облачности и скорости ветра. Ночью, в пасмурную погоду, а также при ветре 12 м/с и более поправка равна нулю.
P - Атмосферное давление - приведенное к уровню моря атмосферное давление.
Po - Атмосферное давление - измеренное на уровне метеостанции атмосферное давление.
Tmin - Минимальная температура - минимум температуры воздуха на высоте 2 м над землей.
Tmax - Максимальная температура - максимум температуры воздуха на высоте 2 м над землей.
R - Количество осадков - Количество выпавших осадков за период времени, мм. При наведении курсора мыши на число - период времени, за который выпало указанное количество осадков.
R24 - Количество осадков - Количество выпавших осадков за 24 часа, мм.
S - Снежный покров - Высота снежного покрова, см. При наведении курсора мыши на число - состояние снежного покрова и степень покрытия местности в баллах.